Weather in Ardabil

Iran     38°14′58″N   48°17′23″E
temp.,
°C
wind,
m/s
gust,
m/s
humid.,
%
clouds,
%
prec.,
mm/h
press.,
hPa
HPBL,
m
10 august, wed
wed1001:30+15ne11830 0.0 1016102
04:30+14nne01800 0.0 101569
07:30+15ese01740 0.0 1016141
10:30+19ene34560 0.0 1014762
13:30+23ene55450 0.0 10121066
16:30+23ene65470 0.0 1011833
19:30+20ene56580 0.0 1012467
22:30+17n12660 0.0 1013165
11 august, thu
thu1101:30+17nnw00680 0.0 101369
04:30+16se00700 0.0 101263
07:30+17sse00660 0.0 101398
10:30+21ene22550 0.0 1012620
13:30+25ene43460 0.0 1010916
16:30+26ene65480 0.0 1009811
19:30+22ene55630 0.1 1010414
22:30+19nne12760 0.1 1012150
12 august, fri
fri1201:30+18nne11720 0.0 101265
04:30+18e00670 0.0 101349
07:30+18nne11570 0.0 1014105
10:30+22ene33480 0.0 1013690
13:30+27ene55330 0.0 1011967
16:30+26ene66310 0.0 1011877
19:30+22ne56360 0.0 1012492
22:30+19nne12413 0.0 101489
13 august, sat
sat1301:30+18n11390 0.0 101470
04:30+17n01400 0.0 101454
07:30+18wnw003715 0.0 101546
10:30+23ene34225 0.0 1014785
13:30+27ene65193 0.0 10121210
16:30+27ene76210 0.0 10101052
19:30+23ne56270 0.0 1012490
22:30+19n12350 0.0 101493
14 august, sun
sun1401:30+18nw11360 0.0 101357
04:30+17wsw00383 0.0 101319
07:30+18nw11381 0.0 101425
10:30+23ene23250 0.0 1013661
13:30+27ene54220 0.0 10111175
16:30+28ene66220 0.0 1010999
19:30+24ene46290 0.0 1011381
22:30+19n11370 0.0 101373